Time,TemperatureF,DewpointF,PressureIn,WindDirection,WindDirectionDegrees,WindSpeedMPH,WindSpeedGustMPH,Humidity,HourlyPrecipIn,Conditions,Clouds,dailyrainin,SolarRadiationWatts/m^2,SoftwareType,DateUTC
2013-05-12 00:00:00,71.0,59.9,30.03,North,0,2.0,6.0,68,0.00,,,0.00,0.00,VWS V14.00,2013-05-12 05:00:00,
2013-05-12 00:15:00,70.9,59.4,30.03,North,0,3.0,7.0,67,0.00,,,0.00,0.00,VWS V14.00,2013-05-12 05:15:00,
2013-05-12 00:30:00,70.7,59.2,30.04,NNW,338,2.0,6.0,67,0.00,,,0.00,0.00,VWS V14.00,2013-05-12 05:30:00,
2013-05-12 00:45:00,70.7,59.2,30.04,North,0,2.0,6.0,67,0.00,,,0.00,0.00,VWS V14.00,2013-05-12 05:45:00,
2013-05-12 01:00:00,70.7,58.8,30.05,North,0,2.0,6.0,66,0.00,,,0.00,0.00,VWS V14.00,2013-05-12 06:00:00,
2013-05-12 01:15:00,70.9,58.6,30.05,North,0,2.0,7.0,65,0.00,,,0.00,0.00,VWS V14.00,2013-05-12 06:15:00,
2013-05-12 01:30:00,70.9,58.6,30.05,NNE,22,2.0,5.0,65,0.00,,,0.00,0.00,VWS V14.00,2013-05-12 06:30:00,
2013-05-12 01:45:00,71.0,58.2,30.05,North,0,2.0,9.0,64,0.00,,,0.00,0.00,VWS V14.00,2013-05-12 06:45:00,
2013-05-12 02:00:00,70.9,58.1,30.04,North,0,3.0,9.0,64,0.00,,,0.00,0.00,VWS V14.00,2013-05-12 07:00:00,
2013-05-12 02:15:00,70.9,58.1,30.03,North,0,3.0,12.0,64,0.00,,,0.00,0.00,VWS V14.00,2013-05-12 07:15:00,
2013-05-12 02:30:00,70.9,57.2,30.03,North,0,3.0,11.0,62,0.00,,,0.00,0.00,VWS V14.00,2013-05-12 07:30:00,
2013-05-12 02:45:00,71.2,57.1,30.01,NNE,22,3.0,11.0,61,0.00,,,0.00,0.00,VWS V14.00,2013-05-12 07:45:00,
2013-05-12 03:00:00,71.2,57.1,30.00,North,0,5.0,11.0,61,0.00,,,0.00,0.00,VWS V14.00,2013-05-12 08:00:00,
2013-05-12 03:15:00,71.2,57.5,29.99,North,0,5.0,15.0,62,0.00,,,0.00,0.00,VWS V14.00,2013-05-12 08:15:00,
2013-05-12 03:30:00,70.9,57.7,29.98,NNE,22,6.0,16.0,63,0.00,,,0.00,0.00,VWS V14.00,2013-05-12 08:30:00,
2013-05-12 03:45:00,71.0,58.2,29.99,North,0,5.0,16.0,64,0.00,,,0.00,0.00,VWS V14.00,2013-05-12 08:45:00,
2013-05-12 04:00:00,71.1,58.3,29.99,NNE,22,5.0,13.0,64,0.00,,,0.00,0.00,VWS V14.00,2013-05-12 09:00:00,
2013-05-12 04:15:00,70.7,58.4,29.97,NE,45,4.0,12.0,65,0.00,,,0.00,0.00,VWS V14.00,2013-05-12 09:15:00,
2013-05-12 04:30:00,69.9,58.5,29.97,ENE,68,2.0,9.0,67,0.00,,,0.00,0.00,VWS V14.00,2013-05-12 09:30:00,
2013-05-12 04:45:00,70.4,58.9,30.00,NNE,22,4.0,11.0,67,0.00,,,0.00,0.00,VWS V14.00,2013-05-12 09:45:00,
2013-05-12 05:00:00,70.1,59.1,30.01,North,0,3.0,10.0,68,0.00,,,0.00,0.00,VWS V14.00,2013-05-12 10:00:00,
2013-05-12 05:15:00,70.8,59.3,30.01,NNE,22,4.0,12.0,67,0.00,,,0.00,0.00,VWS V14.00,2013-05-12 10:15:00,
2013-05-12 05:30:00,71.2,60.1,30.02,NE,45,4.0,12.0,68,0.00,,,0.00,0.00,VWS V14.00,2013-05-12 10:30:00,
2013-05-12 05:45:00,70.7,59.6,30.03,NNE,22,4.0,11.0,68,0.00,,,0.00,0.00,VWS V14.00,2013-05-12 10:45:00,
2013-05-12 06:00:00,69.7,59.1,30.03,NNE,22,4.0,13.0,69,0.00,,,0.00,0.00,VWS V14.00,2013-05-12 11:00:00,
2013-05-12 06:15:00,69.6,59.8,30.03,NNE,22,3.0,12.0,71,0.00,,,0.00,0.00,VWS V14.00,2013-05-12 11:15:00,
2013-05-12 06:30:00,69.5,59.7,30.04,NNE,22,3.0,12.0,71,0.00,,,0.00,0.00,VWS V14.00,2013-05-12 11:30:00,
2013-05-12 06:45:00,69.1,59.3,30.04,North,0,3.0,11.0,71,0.00,,,0.00,1.00,VWS V14.00,2013-05-12 11:45:00,
2013-05-12 07:00:00,69.4,60.0,30.05,NE,45,4.0,13.0,72,0.00,,,0.00,12.00,VWS V14.00,2013-05-12 12:00:00,
2013-05-12 07:15:00,69.5,60.1,30.05,NNE,22,4.0,12.0,72,0.00,,,0.00,36.00,VWS V14.00,2013-05-12 12:15:00,
2013-05-12 07:30:00,69.6,60.6,30.05,NNE,22,4.0,14.0,73,0.00,,,0.00,51.00,VWS V14.00,2013-05-12 12:30:00,
2013-05-12 07:45:00,69.7,60.7,30.06,NNE,22,4.0,11.0,73,0.00,,,0.00,104.00,VWS V14.00,2013-05-12 12:45:00,
2013-05-12 08:00:00,70.1,61.0,30.06,NNE,22,5.0,12.0,73,0.00,,,0.00,149.00,VWS V14.00,2013-05-12 13:00:00,
2013-05-12 08:15:00,70.7,62.0,30.07,NNE,22,4.0,10.0,74,0.00,,,0.00,155.00,VWS V14.00,2013-05-12 13:15:00,
2013-05-12 08:30:00,72.3,63.2,30.07,NNE,22,4.0,13.0,73,0.00,,,0.00,318.00,VWS V14.00,2013-05-12 13:30:00,
2013-05-12 08:52:00,73.8,64.2,30.08,NE,45,4.0,10.0,72,0.00,,,0.00,451.00,VWS V14.00,2013-05-12 13:52:00,
2013-05-12 09:00:00,73.6,64.0,30.09,NE,44,4.0,11.0,72,0.00,,,0.00,285.00,VWS V14.00,2013-05-12 14:00:00,
2013-05-12 09:15:00,74.0,64.4,30.09,NNE,22,3.0,9.0,72,0.00,,,0.00,245.00,VWS V14.00,2013-05-12 14:15:00,
2013-05-12 09:30:00,73.8,64.6,30.10,NNE,22,4.0,11.0,73,0.00,,,0.00,243.00,VWS V14.00,2013-05-12 14:30:00,
2013-05-12 09:45:00,74.3,65.5,30.09,NNE,22,4.0,14.0,74,0.00,,,0.00,255.00,VWS V14.00,2013-05-12 14:45:00,
2013-05-12 10:00:00,74.6,65.8,30.09,NNE,22,4.0,12.0,74,0.00,,,0.00,266.00,VWS V14.00,2013-05-12 15:00:00,
2013-05-12 10:15:00,75.3,66.4,30.09,NNE,22,3.0,12.0,74,0.00,,,0.00,329.00,VWS V14.00,2013-05-12 15:15:00,
2013-05-12 10:30:00,76.0,66.3,30.09,NE,45,3.0,9.0,72,0.00,,,0.00,352.00,VWS V14.00,2013-05-12 15:30:00,
2013-05-12 10:45:00,77.0,66.5,30.11,North,0,3.0,11.0,70,0.00,,,0.00,577.00,VWS V14.00,2013-05-12 15:45:00,
2013-05-12 11:00:00,79.8,67.0,30.11,NNE,22,3.0,9.0,65,0.00,,,0.00,879.00,VWS V14.00,2013-05-12 16:00:00,
2013-05-12 11:15:00,79.7,66.5,30.10,North,0,4.0,11.0,64,0.00,,,0.00,571.00,VWS V14.00,2013-05-12 16:15:00,
2013-05-12 11:30:00,78.3,65.1,30.10,NE,45,5.0,13.0,64,0.00,,,0.00,382.00,VWS V14.00,2013-05-12 16:30:00,
2013-05-12 11:45:00,78.0,64.8,30.10,NNE,22,4.0,9.0,64,0.00,,,0.00,351.00,VWS V14.00,2013-05-12 16:45:00,
2013-05-12 12:00:00,78.2,65.0,30.11,NE,45,4.0,12.0,64,0.00,,,0.00,405.00,VWS V14.00,2013-05-12 17:00:00,
2013-05-12 12:15:00,78.4,64.3,30.11,NNE,22,3.0,12.0,62,0.00,,,0.00,352.00,VWS V14.00,2013-05-12 17:15:00,
2013-05-12 12:30:00,78.2,63.2,30.11,North,0,4.0,13.0,60,0.00,,,0.00,297.00,VWS V14.00,2013-05-12 17:30:00,
2013-05-12 12:45:00,77.9,63.4,30.11,NNE,22,3.0,11.0,61,0.00,,,0.00,262.00,VWS V14.00,2013-05-12 17:45:00,
2013-05-12 13:00:00,77.7,64.1,30.11,ENE,68,3.0,7.0,63,0.00,,,0.00,214.00,VWS V14.00,2013-05-12 18:00:00,
2013-05-12 13:15:00,77.5,63.5,30.10,NE,45,3.0,10.0,62,0.00,,,0.00,220.00,VWS V14.00,2013-05-12 18:15:00,
2013-05-12 13:30:00,77.6,63.6,30.09,NE,45,3.0,9.0,62,0.00,,,0.00,209.00,VWS V14.00,2013-05-12 18:30:00,
2013-05-12 13:45:00,77.3,63.3,30.06,NNE,22,5.0,13.0,62,0.00,,,0.00,188.00,VWS V14.00,2013-05-12 18:45:00,
2013-05-12 14:00:00,77.3,64.2,30.06,NNE,22,4.0,13.0,64,0.00,,,0.00,250.00,VWS V14.00,2013-05-12 19:00:00,
2013-05-12 14:15:00,77.6,64.0,30.08,North,0,4.0,14.0,63,0.00,,,0.00,327.00,VWS V14.00,2013-05-12 19:15:00,
2013-05-12 14:30:00,77.4,63.8,30.08,NNE,22,3.0,11.0,63,0.00,,,0.00,225.00,VWS V14.00,2013-05-12 19:30:00,
2013-05-12 15:00:00,78.2,63.2,30.07,NE,45,4.0,12.0,60,0.00,,,0.00,443.00,VWS V14.00,2013-05-12 20:00:00,
2013-05-12 15:15:00,80.7,63.6,30.06,North,0,4.0,12.0,56,0.00,,,0.00,1022.00,VWS V14.00,2013-05-12 20:15:00,
2013-05-12 15:30:00,81.6,62.8,30.06,NNE,22,4.0,12.0,53,0.00,,,0.00,990.00,VWS V14.00,2013-05-12 20:30:00,
2013-05-12 15:45:00,82.3,62.9,30.06,NNE,22,3.0,12.0,52,0.00,,,0.00,807.00,VWS V14.00,2013-05-12 20:45:00,
2013-05-12 16:00:00,82.8,61.7,30.06,NE,45,3.0,10.0,49,0.00,,,0.00,817.00,VWS V14.00,2013-05-12 21:00:00,
2013-05-12 16:15:00,81.3,62.5,30.05,North,0,4.0,13.0,53,0.00,,,0.00,666.00,VWS V14.00,2013-05-12 21:15:00,
2013-05-12 16:30:00,81.7,60.7,30.05,NNE,22,3.0,11.0,49,0.00,,,0.00,700.00,VWS V14.00,2013-05-12 21:30:00,
2013-05-12 16:45:00,82.6,60.9,30.05,NE,45,3.0,10.0,48,0.00,,,0.00,663.00,VWS V14.00,2013-05-12 21:45:00,
2013-05-12 17:00:00,82.6,58.5,30.06,NNE,22,3.0,9.0,44,0.00,,,0.00,617.00,VWS V14.00,2013-05-12 22:00:00,
2013-05-12 17:15:00,81.8,57.1,30.05,NNE,22,4.0,11.0,43,0.00,,,0.00,556.00,VWS V14.00,2013-05-12 22:15:00,
2013-05-12 17:30:00,81.7,57.0,30.05,NE,45,3.0,11.0,43,0.00,,,0.00,491.00,VWS V14.00,2013-05-12 22:30:00,
2013-05-12 17:45:00,82.0,58.0,30.04,NE,45,3.0,9.0,44,0.00,,,0.00,446.00,VWS V14.00,2013-05-12 22:45:00,
2013-05-12 18:00:00,81.2,56.0,30.04,NNE,22,3.0,9.0,42,0.00,,,0.00,374.00,VWS V14.00,2013-05-12 23:00:00,
2013-05-12 18:15:00,81.2,55.3,30.04,ENE,68,3.0,11.0,41,0.00,,,0.00,368.00,VWS V14.00,2013-05-12 23:15:00,
2013-05-12 18:30:00,80.6,56.7,30.04,North,0,3.0,11.0,44,0.00,,,0.00,281.00,VWS V14.00,2013-05-12 23:30:00,
2013-05-12 18:45:00,80.4,56.5,30.04,NE,45,2.0,9.0,44,0.00,,,0.00,246.00,VWS V14.00,2013-05-12 23:45:00,
2013-05-12 19:00:00,79.5,57.5,30.04,NE,45,2.0,7.0,47,0.00,,,0.00,120.00,VWS V14.00,2013-05-13 00:00:00,
2013-05-12 19:15:00,79.0,57.7,30.03,ENE,68,2.0,7.0,48,0.00,,,0.00,55.00,VWS V14.00,2013-05-13 00:15:00,
2013-05-12 19:30:00,77.8,56.0,30.03,East,90,3.0,9.0,47,0.00,,,0.00,42.00,VWS V14.00,2013-05-13 00:30:00,
2013-05-12 19:45:00,76.2,56.2,30.05,East,90,3.0,11.0,50,0.00,,,0.00,24.00,VWS V14.00,2013-05-13 00:45:00,
2013-05-12 20:00:00,75.1,57.3,30.06,East,90,3.0,6.0,54,0.00,,,0.00,14.00,VWS V14.00,2013-05-13 01:00:00,
2013-05-12 20:15:00,74.2,58.5,30.06,East,90,2.0,6.0,58,0.00,,,0.00,3.00,VWS V14.00,2013-05-13 01:15:00,
2013-05-12 20:30:00,73.2,58.5,30.07,East,90,2.0,6.0,60,0.00,,,0.00,0.00,VWS V14.00,2013-05-13 01:30:00,
2013-05-12 20:45:00,72.5,58.3,30.08,ESE,112,1.0,4.0,61,0.00,,,0.00,0.00,VWS V14.00,2013-05-13 01:45:00,
2013-05-12 21:00:00,71.9,58.6,30.08,ESE,112,1.0,3.0,63,0.00,,,0.00,0.00,VWS V14.00,2013-05-13 02:00:00,
2013-05-12 21:15:00,71.4,58.6,30.09,ESE,112,1.0,3.0,64,0.00,,,0.00,0.00,VWS V14.00,2013-05-13 02:15:00,
2013-05-12 21:30:00,71.2,59.3,30.09,East,90,1.0,3.0,66,0.00,,,0.00,0.00,VWS V14.00,2013-05-13 02:30:00,
2013-05-12 21:45:00,71.0,59.5,30.10,East,90,1.0,3.0,67,0.00,,,0.00,0.00,VWS V14.00,2013-05-13 02:45:00,
2013-05-12 22:00:00,70.8,59.7,30.10,East,90,1.0,3.0,68,0.00,,,0.00,0.00,VWS V14.00,2013-05-13 03:00:00,
2013-05-12 22:15:00,70.5,60.3,30.10,East,90,1.0,3.0,70,0.00,,,0.00,0.00,VWS V14.00,2013-05-13 03:15:00,
2013-05-12 22:30:00,70.4,60.6,30.10,East,90,1.0,3.0,71,0.00,,,0.00,0.00,VWS V14.00,2013-05-13 03:30:00,
2013-05-12 22:45:00,70.2,60.8,30.11,East,90,1.0,4.0,72,0.00,,,0.00,0.00,VWS V14.00,2013-05-13 03:45:00,
2013-05-12 23:00:00,70.1,60.7,30.11,East,90,0.0,3.0,72,0.00,,,0.00,0.00,VWS V14.00,2013-05-13 04:00:00,
2013-05-12 23:15:00,69.5,60.5,30.12,East,90,0.0,3.0,73,0.00,,,0.00,0.00,VWS V14.00,2013-05-13 04:15:00,
2013-05-12 23:30:00,69.3,60.7,30.11,East,90,0.0,2.0,74,0.00,,,0.00,0.00,VWS V14.00,2013-05-13 04:30:00,
2013-05-12 23:45:00,69.2,60.6,30.11,East,90,0.0,2.0,74,0.00,,,0.00,0.00,VWS V14.00,2013-05-13 04:45:00,